QPF
0.00 0.01 0.03 0.01 0.01 0.00 0.00 0.00 0.00 0.00 0.01 0.02 0.03 0.04 0.03 0.03 0.03 0.02 0.03 0.03 0.02 0.01 0.00 0.00 0.00 0.00 0.00 0.00 0.00 0.00 0.00 0.00 0.00 0.00 0.00 0.00 0.00 0.01 0.00 0.00 0.00 0.01 0.01
0.00 0.01 0.02 0.01 0.01 0.00 0.00 0.00 0.00 0.01 0.01 0.03 0.05 0.05 0.04 0.03 0.03 0.04 0.02 0.01 0.00 0.00 0.00 0.00 0.00 0.00 0.00 0.00 0.00 0.00 0.00 0.00 0.00 0.00 0.00 0.00 0.00 0.00 0.00 0.00 0.00 0.01 0.01
0.00 0.01 0.02 0.01 0.01 0.00 0.00 0.00 0.00 0.01 0.02 0.04 0.06 0.06 0.06 0.04 0.03 0.02 0.00 0.00 0.00 0.00 0.00 0.00 0.00 0.00 0.00 0.00 0.00 0.00 0.00 0.00 0.00 0.00 0.00 0.00 0.00 0.00 0.00 0.00 0.00 0.00 0.00
0.00 0.01 0.02 0.02 0.01 0.00 0.00 0.00 0.00 0.01 0.03 0.05 0.07 0.07 0.06 0.04 0.02 0.01 0.00 0.00 0.00 0.00 0.00 0.00 0.00 0.00 0.00 0.00 0.00 0.00 0.00 0.00 0.00 0.00 0.00 0.00 0.00 0.00 0.00 0.00 0.00 0.00 0.00
0.01 0.01 0.02 0.02 0.01 0.00 0.00 0.00 0.01 0.01 0.04 0.06 0.07 0.06 0.04 0.03 0.02 0.01 0.00 0.00 0.00 0.00 0.00 0.00 0.00 0.00 0.00 0.00 0.00 0.00 0.00 0.00 0.00 0.00 0.00 0.00 0.00 0.00 0.00 0.00 0.00 0.00 0.00
0.02 0.02 0.03 0.02 0.01 0.00 0.00 0.01 0.01 0.01 0.04 0.05 0.06 0.05 0.03 0.02 0.01 0.00 0.00 0.00 0.00 0.00 0.00 0.00 0.00 0.00 0.00 0.00 0.00 0.00 0.00 0.00 0.00 0.00 0.00 0.00 0.00 0.00 0.00 0.00 0.00 0.00 0.00
0.03 0.03 0.04 0.03 0.01 0.01 0.01 0.01 0.01 0.01 0.03 0.04 0.06 0.05 0.02 0.01 0.00 0.00 0.00 0.00 0.00 0.00 0.00 0.00 0.00 0.00 0.00 0.00 0.00 0.00 0.00 0.00 0.00 0.00 0.00 0.00 0.00 0.00 0.00 0.00 0.00 0.00 0.00
0.05 0.05 0.06 0.05 0.02 0.01 0.01 0.01 0.01 0.01 0.02 0.03 0.04 0.03 0.01 0.01 0.00 0.00 0.00 0.00 0.00 0.00 0.00 0.00 0.00 0.00 0.00 0.00 0.00 0.00 0.00 0.00 0.00 0.00 0.00 0.00 0.00 0.00 0.00 0.00 0.00 0.00 0.00
0.11 0.10 0.08 0.07 0.03 0.01 0.01 0.02 0.01 0.01 0.01 0.03 0.03 0.02 0.01 0.00 0.00 0.00 0.00 0.00 0.00 0.00 0.00 0.00 0.00 0.00 0.00 0.00 0.00 0.00 0.00 0.00 0.00 0.00 0.00 0.00 0.00 0.00 0.00 0.00 0.00 0.00 0.00
0.20 0.15 0.11 0.08 0.03 0.02 0.01 0.02 0.02 0.01 0.01 0.02 0.02 0.01 0.00 0.00 0.00 0.00 0.00 0.00 0.00 0.00 0.00 0.00 0.00 0.00 0.00 0.00 0.00 0.00 0.00 0.00 0.00 0.00 0.00 0.00 0.00 0.00 0.00 0.00 0.00 0.00 0.00
0.28 0.22 0.16 0.10 0.04 0.02 0.02 0.03 0.02 0.01 0.01 0.01 0.01 0.00 0.00 0.00 0.00 0.00 0.00 0.00 0.00 0.00 0.00 0.00 0.00 0.00 0.00 0.00 0.00 0.00 0.00 0.00 0.00 0.00 0.00 0.00 0.00 0.00 0.00 0.01 0.01 0.00 0.00
0.32 0.25 0.19 0.11 0.06 0.03 0.02 0.03 0.03 0.02 0.01 0.01 0.00 0.00 0.00 0.00 0.00 0.00 0.00 0.00 0.00 0.00 0.00 0.00 0.00 0.00 0.00 0.00 0.00 0.00 0.00 0.00 0.00 0.00 0.00 0.00 0.00 0.00 0.00 0.01 0.01 0.00 0.00
0.38 0.28 0.24 0.16 0.07 0.04 0.03 0.03 0.02 0.01 0.01 0.01 0.00 0.00 0.00 0.00 0.00 0.00 0.00 0.00 0.00 0.00 0.00 0.00 0.00 0.00 0.00 0.00 0.00 0.00 0.00 0.00 0.00 0.00 0.00 0.00 0.00 0.00 0.00 0.01 0.01 0.01 0.01
0.45 0.33 0.30 0.19 0.09 0.04 0.03 0.03 0.02 0.01 0.01 0.01 0.00 0.00 0.00 0.00 0.00 0.00 0.00 0.00 0.00 0.00 0.00 0.00 0.00 0.00 0.00 0.00 0.00 0.00 0.00 0.00 0.00 0.00 0.00 0.00 0.00 0.00 0.00 0.01 0.01 0.01 0.02
0.45 0.40 0.32 0.20 0.11 0.06 0.04 0.03 0.02 0.01 0.00 0.00 0.00 0.00 0.00 0.00 0.00 0.00 0.00 0.00 0.00 0.00 0.00 0.00 0.00 0.00 0.00 0.00 0.00 0.00 0.00 0.00 0.00 0.00 0.00 0.00 0.00 0.00 0.00 0.00 0.01 0.02 0.02
0.38 0.41 0.33 0.20 0.11 0.07 0.05 0.03 0.03 0.01 0.01 0.01 0.01 0.00 0.00 0.00 0.00 0.00 0.00 0.00 0.00 0.00 0.00 0.00 0.00 0.00 0.00 0.00 0.00 0.00 0.00 0.00 0.00 0.00 0.00 0.00 0.00 0.00 0.00 0.00 0.01 0.01 0.02
0.29 0.33 0.32 0.25 0.15 0.08 0.06 0.04 0.03 0.02 0.02 0.01 0.01 0.01 0.01 0.00 0.00 0.00 0.00 0.00 0.00 0.00 0.00 0.00 0.00 0.00 0.00 0.00 0.00 0.00 0.00 0.00 0.00 0.00 0.00 0.00 0.00 0.00 0.00 0.00 0.00 0.01 0.02
0.27 0.28 0.27 0.25 0.20 0.13 0.09 0.06 0.04 0.04 0.03 0.02 0.02 0.02 0.02 0.01 0.00 0.00 0.00 0.00 0.00 0.00 0.00 0.00 0.00 0.00 0.00 0.00 0.00 0.00 0.00 0.00 0.00 0.00 0.00 0.00 0.00 0.00 0.00 0.00 0.00 0.01 0.01
0.24 0.25 0.23 0.20 0.20 0.17 0.15 0.13 0.09 0.06 0.05 0.04 0.03 0.03 0.03 0.04 0.03 0.03 0.02 0.01 0.00 0.00 0.00 0.00 0.00 0.00 0.00 0.00 0.00 0.00 0.00 0.00 0.00 0.00 0.00 0.00 0.00 0.00 0.00 0.00 0.00 0.00 0.00
0.27 0.26 0.24 0.21 0.21 0.20 0.20 0.19 0.14 0.09 0.07 0.07 0.06 0.06 0.06 0.05 0.06 0.05 0.05 0.03 0.02 0.01 0.01 0.01 0.00 0.00 0.00 0.01 0.00 0.00 0.00 0.00 0.00 0.00 0.00 0.00 0.00 0.00 0.00 0.00 0.00 0.00 0.00
0.34 0.33 0.32 0.29 0.28 0.25 0.21 0.20 0.18 0.14 0.12 0.10 0.09 0.10 0.09 0.07 0.07 0.07 0.06 0.06 0.05 0.04 0.02 0.01 0.01 0.01 0.01 0.01 0.01 0.00 0.00 0.00 0.00 0.00 0.00 0.00 0.00 0.00 0.00 0.00 0.00 0.00 0.00
0.34 0.32 0.34 0.36 0.33 0.31 0.30 0.29 0.25 0.23 0.22 0.20 0.18 0.17 0.16 0.15 0.14 0.13 0.12 0.12 0.09 0.06 0.03 0.02 0.01 0.01 0.02 0.02 0.02 0.01 0.01 0.00 0.00 0.00 0.00 0.00 0.00 0.00 0.00 0.00 0.00 0.00 0.00
0.34 0.35 0.34 0.35 0.38 0.34 0.36 0.43 0.39 0.32 0.30 0.28 0.25 0.26 0.26 0.23 0.21 0.20 0.19 0.17 0.13 0.08 0.05 0.04 0.04 0.04 0.04 0.04 0.04 0.03 0.02 0.01 0.01 0.00 0.00 0.00 0.00 0.00 0.00 0.00 0.00 0.00 0.00
0.26 0.32 0.37 0.38 0.41 0.44 0.45 0.46 0.42 0.37 0.35 0.34 0.31 0.29 0.28 0.25 0.24 0.24 0.24 0.21 0.18 0.14 0.09 0.07 0.06 0.06 0.05 0.04 0.03 0.03 0.02 0.02 0.01 0.00 0.00 0.00 0.00 0.00 0.00 0.00 0.00 0.00 0.00
0.18 0.22 0.28 0.38 0.42 0.48 0.55 0.53 0.48 0.43 0.38 0.40 0.39 0.34 0.31 0.30 0.28 0.28 0.27 0.24 0.21 0.15 0.11 0.08 0.07 0.06 0.05 0.05 0.03 0.02 0.01 0.01 0.00 0.01 0.00 0.00 0.00 0.00 0.00 0.00 0.00 0.00 0.00
0.13 0.16 0.19 0.23 0.27 0.32 0.39 0.48 0.52 0.53 0.51 0.46 0.43 0.39 0.36 0.34 0.30 0.28 0.28 0.23 0.18 0.13 0.09 0.08 0.06 0.05 0.04 0.03 0.02 0.02 0.01 0.01 0.00 0.00 0.00 0.00 0.00 0.00 0.00 0.00 0.00 0.00 0.00
MSLP
1011.57 1011.80 1012.18 1012.66 1013.16 1013.60 1013.93 1014.10 1014.15 1014.10 1014.03 1014.01 1014.11 1014.33 1014.67 1015.09 1015.53 1015.93 1016.25 1016.46 1016.59 1016.65 1016.68 1016.72 1016.78 1016.88 1017.00 1017.12 1017.22 1017.29 1017.32 1017.34 1017.34 1017.35 1017.38 1017.43 1017.48 1017.53 1017.55 1017.54 1017.50 1017.43 1017.34
1011.20 1011.49 1011.93 1012.48 1013.05 1013.55 1013.93 1014.14 1014.21 1014.17 1014.10 1014.09 1014.18 1014.41 1014.77 1015.21 1015.67 1016.09 1016.44 1016.68 1016.83 1016.91 1016.96 1017.01 1017.08 1017.18 1017.30 1017.41 1017.50 1017.56 1017.59 1017.61 1017.62 1017.65 1017.70 1017.78 1017.86 1017.93 1017.96 1017.95 1017.89 1017.79 1017.67
1010.85 1011.18 1011.68 1012.29 1012.92 1013.49 1013.92 1014.18 1014.28 1014.27 1014.23 1014.23 1014.33 1014.57 1014.92 1015.36 1015.82 1016.25 1016.60 1016.86 1017.03 1017.13 1017.21 1017.28 1017.38 1017.49 1017.61 1017.71 1017.79 1017.84 1017.85 1017.85 1017.86 1017.90 1017.97 1018.07 1018.18 1018.27 1018.33 1018.33 1018.27 1018.15 1018.01
1010.61 1010.97 1011.50 1012.16 1012.83 1013.44 1013.91 1014.21 1014.36 1014.40 1014.40 1014.43 1014.55 1014.79 1015.13 1015.55 1016.00 1016.41 1016.75 1017.01 1017.20 1017.33 1017.44 1017.55 1017.67 1017.80 1017.93 1018.03 1018.09 1018.11 1018.09 1018.07 1018.07 1018.10 1018.18 1018.29 1018.43 1018.54 1018.62 1018.64 1018.59 1018.49 1018.34
1010.54 1010.92 1011.47 1012.13 1012.81 1013.43 1013.93 1014.26 1014.45 1014.54 1014.58 1014.66 1014.81 1015.05 1015.39 1015.79 1016.20 1016.58 1016.91 1017.16 1017.36 1017.52 1017.66 1017.81 1017.96 1018.12 1018.25 1018.34 1018.38 1018.37 1018.33 1018.28 1018.25 1018.26 1018.34 1018.45 1018.60 1018.73 1018.84 1018.88 1018.85 1018.77 1018.64
1010.69 1011.08 1011.62 1012.25 1012.90 1013.49 1013.97 1014.31 1014.53 1014.66 1014.77 1014.89 1015.08 1015.35 1015.68 1016.06 1016.44 1016.79 1017.09 1017.33 1017.53 1017.70 1017.88 1018.05 1018.24 1018.41 1018.55 1018.64 1018.66 1018.63 1018.56 1018.47 1018.41 1018.40 1018.46 1018.56 1018.71 1018.85 1018.97 1019.04 1019.04 1018.99 1018.89
1011.05 1011.43 1011.93 1012.50 1013.07 1013.60 1014.02 1014.35 1014.58 1014.76 1014.92 1015.11 1015.35 1015.65 1015.99 1016.36 1016.71 1017.03 1017.29 1017.52 1017.71 1017.90 1018.09 1018.29 1018.49 1018.67 1018.82 1018.90 1018.91 1018.85 1018.76 1018.65 1018.56 1018.53 1018.56 1018.65 1018.79 1018.93 1019.06 1019.14 1019.17 1019.15 1019.09
1011.56 1011.93 1012.37 1012.85 1013.32 1013.74 1014.09 1014.37 1014.60 1014.81 1015.03 1015.28 1015.58 1015.92 1016.29 1016.65 1016.98 1017.28 1017.52 1017.72 1017.91 1018.09 1018.28 1018.49 1018.69 1018.88 1019.01 1019.09 1019.09 1019.02 1018.92 1018.80 1018.71 1018.66 1018.67 1018.75 1018.86 1019.00 1019.12 1019.21 1019.26 1019.27 1019.24
1012.14 1012.49 1012.87 1013.25 1013.59 1013.89 1014.14 1014.37 1014.58 1014.82 1015.09 1015.41 1015.77 1016.16 1016.55 1016.92 1017.24 1017.52 1017.74 1017.92 1018.09 1018.26 1018.45 1018.64 1018.83 1018.99 1019.11 1019.18 1019.17 1019.11 1019.01 1018.91 1018.82 1018.78 1018.79 1018.85 1018.96 1019.07 1019.18 1019.27 1019.33 1019.35 1019.34
1012.70 1013.04 1013.36 1013.62 1013.84 1014.01 1014.17 1014.34 1014.54 1014.79 1015.11 1015.49 1015.90 1016.33 1016.75 1017.13 1017.45 1017.71 1017.92 1018.09 1018.25 1018.40 1018.56 1018.72 1018.88 1019.02 1019.11 1019.16 1019.15 1019.10 1019.03 1018.96 1018.90 1018.88 1018.90 1018.97 1019.05 1019.15 1019.25 1019.32 1019.37 1019.39 1019.39
1013.16 1013.50 1013.76 1013.92 1014.03 1014.10 1014.17 1014.29 1014.47 1014.74 1015.10 1015.52 1015.98 1016.44 1016.87 1017.26 1017.57 1017.83 1018.03 1018.20 1018.34 1018.48 1018.61 1018.74 1018.86 1018.96 1019.02 1019.04 1019.03 1019.00 1018.96 1018.92 1018.91 1018.93 1018.98 1019.05 1019.14 1019.22 1019.29 1019.34 1019.37 1019.39 1019.39
1013.49 1013.82 1014.02 1014.11 1014.13 1014.12 1014.13 1014.21 1014.39 1014.68 1015.06 1015.51 1015.99 1016.47 1016.91 1017.29 1017.60 1017.85 1018.05 1018.22 1018.36 1018.49 1018.61 1018.70 1018.78 1018.83 1018.84 1018.84 1018.82 1018.80 1018.80 1018.81 1018.85 1018.92 1019.00 1019.09 1019.17 1019.23 1019.28 1019.31 1019.32 1019.32 1019.32
1013.64 1013.97 1014.14 1014.17 1014.13 1014.07 1014.06 1014.13 1014.31 1014.62 1015.02 1015.48 1015.97 1016.43 1016.86 1017.22 1017.53 1017.77 1017.98 1018.16 1018.31 1018.44 1018.55 1018.62 1018.65 1018.65 1018.63 1018.59 1018.56 1018.55 1018.57 1018.62 1018.71 1018.82 1018.93 1019.03 1019.11 1019.16 1019.19 1019.19 1019.19 1019.18 1019.18
1013.64 1013.95 1014.09 1014.10 1014.03 1013.96 1013.94 1014.02 1014.23 1014.56 1014.97 1015.43 1015.90 1016.34 1016.74 1017.07 1017.36 1017.61 1017.82 1018.02 1018.19 1018.34 1018.45 1018.50 1018.51 1018.47 1018.41 1018.34 1018.28 1018.27 1018.30 1018.38 1018.50 1018.63 1018.76 1018.87 1018.95 1018.99 1019.00 1018.99 1018.98 1018.97 1018.98
1013.51 1013.79 1013.91 1013.90 1013.83 1013.77 1013.79 1013.91 1014.15 1014.50 1014.93 1015.38 1015.82 1016.22 1016.57 1016.87 1017.13 1017.37 1017.60 1017.82 1018.02 1018.19 1018.32 1018.38 1018.37 1018.31 1018.21 1018.10 1018.03 1018.00 1018.02 1018.11 1018.24 1018.38 1018.52 1018.63 1018.70 1018.73 1018.73 1018.71 1018.70 1018.71 1018.75
1013.27 1013.52 1013.61 1013.60 1013.55 1013.53 1013.59 1013.77 1014.06 1014.44 1014.88 1015.32 1015.73 1016.08 1016.38 1016.63 1016.86 1017.09 1017.32 1017.57 1017.81 1018.01 1018.16 1018.24 1018.23 1018.16 1018.04 1017.91 1017.81 1017.76 1017.77 1017.85 1017.97 1018.10 1018.23 1018.33 1018.38 1018.40 1018.40 1018.39 1018.40 1018.44 1018.51
1012.97 1013.17 1013.24 1013.23 1013.21 1013.25 1013.37 1013.61 1013.96 1014.38 1014.83 1015.25 1015.63 1015.94 1016.18 1016.39 1016.58 1016.79 1017.03 1017.29 1017.56 1017.80 1017.98 1018.08 1018.09 1018.02 1017.90 1017.77 1017.65 1017.58 1017.57 1017.63 1017.72 1017.83 1017.94 1018.02 1018.06 1018.07 1018.07 1018.09 1018.12 1018.20 1018.32
1012.63 1012.77 1012.83 1012.83 1012.85 1012.94 1013.13 1013.44 1013.84 1014.29 1014.76 1015.18 1015.53 1015.79 1016.00 1016.16 1016.32 1016.50 1016.73 1017.00 1017.28 1017.55 1017.76 1017.89 1017.93 1017.88 1017.78 1017.65 1017.54 1017.46 1017.44 1017.47 1017.54 1017.62 1017.70 1017.75 1017.78 1017.80 1017.81 1017.85 1017.92 1018.05 1018.21
1012.28 1012.39 1012.42 1012.44 1012.50 1012.64 1012.89 1013.25 1013.70 1014.19 1014.67 1015.08 1015.41 1015.65 1015.81 1015.94 1016.07 1016.23 1016.44 1016.70 1016.98 1017.26 1017.49 1017.66 1017.73 1017.73 1017.66 1017.56 1017.46 1017.40 1017.37 1017.38 1017.43 1017.48 1017.54 1017.57 1017.60 1017.61 1017.65 1017.72 1017.83 1018.00 1018.21
1011.97 1012.04 1012.07 1012.11 1012.20 1012.38 1012.68 1013.08 1013.56 1014.07 1014.55 1014.96 1015.28 1015.50 1015.64 1015.74 1015.84 1015.97 1016.16 1016.40 1016.67 1016.95 1017.20 1017.39 1017.51 1017.55 1017.53 1017.48 1017.42 1017.38 1017.36 1017.37 1017.40 1017.44 1017.47 1017.49 1017.51 1017.54 1017.60 1017.70 1017.86 1018.07 1018.31
1011.73 1011.78 1011.81 1011.87 1011.98 1012.20 1012.52 1012.94 1013.43 1013.93 1014.41 1014.81 1015.12 1015.32 1015.45 1015.54 1015.62 1015.73 1015.89 1016.11 1016.36 1016.63 1016.89 1017.10 1017.26 1017.35 1017.39 1017.40 1017.40 1017.39 1017.40 1017.41 1017.44 1017.46 1017.48 1017.49 1017.52 1017.57 1017.65 1017.79 1017.97 1018.21 1018.48
1011.59 1011.63 1011.68 1011.75 1011.89 1012.12 1012.44 1012.85 1013.32 1013.80 1014.25 1014.63 1014.92 1015.12 1015.25 1015.33 1015.41 1015.51 1015.65 1015.84 1016.08 1016.33 1016.59 1016.82 1017.01 1017.16 1017.26 1017.33 1017.39 1017.43 1017.46 1017.49 1017.52 1017.53 1017.54 1017.55 1017.58 1017.65 1017.76 1017.92 1018.14 1018.39 1018.67
1011.58 1011.64 1011.70 1011.80 1011.94 1012.16 1012.46 1012.83 1013.25 1013.67 1014.08 1014.43 1014.70 1014.90 1015.03 1015.13 1015.21 1015.31 1015.44 1015.62 1015.84 1016.08 1016.33 1016.58 1016.80 1017.00 1017.16 1017.29 1017.40 1017.48 1017.54 1017.58 1017.60 1017.61 1017.61 1017.62 1017.66 1017.74 1017.87 1018.06 1018.30 1018.57 1018.84
1011.72 1011.80 1011.88 1011.99 1012.13 1012.33 1012.58 1012.89 1013.22 1013.57 1013.91 1014.21 1014.46 1014.65 1014.80 1014.92 1015.02 1015.14 1015.28 1015.46 1015.67 1015.90 1016.15 1016.41 1016.65 1016.88 1017.09 1017.26 1017.41 1017.53 1017.61 1017.65 1017.67 1017.66 1017.65 1017.66 1017.70 1017.79 1017.95 1018.16 1018.42 1018.70 1018.97
1012.01 1012.10 1012.20 1012.32 1012.45 1012.61 1012.80 1013.01 1013.25 1013.51 1013.76 1014.00 1014.21 1014.40 1014.56 1014.71 1014.85 1015.00 1015.17 1015.35 1015.57 1015.80 1016.05 1016.31 1016.57 1016.82 1017.05 1017.26 1017.43 1017.57 1017.65 1017.69 1017.69 1017.67 1017.64 1017.64 1017.69 1017.79 1017.97 1018.21 1018.48 1018.78 1019.05
1012.43 1012.53 1012.63 1012.74 1012.85 1012.97 1013.08 1013.20 1013.33 1013.48 1013.64 1013.80 1013.98 1014.15 1014.33 1014.51 1014.69 1014.88 1015.08 1015.30 1015.52 1015.76 1016.01 1016.28 1016.54 1016.80 1017.05 1017.26 1017.45 1017.58 1017.66 1017.68 1017.67 1017.62 1017.59 1017.58 1017.63 1017.74 1017.94 1018.20 1018.51 1018.82 1019.11
Thickness
5770 5769 5762 5761 5760 5759 5758 5757 5757 5756 5756 5755 5754 5752 5749 5747 5745 5744 5742 5740 5739 5737 5735 5734 5732 5731 5730 5728 5727 5726 5725 5724 5723 5722 5722 5721 5721 5720 5720 5720 5721 5719 5716
5769 5765 5758 5757 5756 5755 5754 5754 5753 5753 5752 5752 5751 5749 5746 5744 5742 5741 5739 5737 5735 5734 5732 5731 5729 5727 5726 5725 5723 5722 5721 5720 5719 5719 5719 5718 5717 5717 5716 5716 5715 5715 5713
5764 5760 5754 5752 5752 5750 5750 5750 5749 5749 5749 5748 5747 5746 5743 5741 5739 5737 5735 5733 5732 5730 5729 5727 5726 5724 5723 5721 5720 5719 5717 5717 5716 5716 5718 5718 5715 5713 5713 5712 5711 5711 5710
5757 5754 5751 5747 5747 5746 5745 5745 5745 5745 5745 5744 5744 5742 5740 5738 5736 5733 5732 5730 5728 5726 5725 5723 5722 5720 5719 5718 5716 5715 5714 5713 5713 5715 5717 5716 5713 5710 5710 5709 5708 5707 5707
5749 5748 5745 5742 5741 5741 5741 5740 5740 5740 5740 5740 5739 5737 5735 5734 5732 5729 5728 5726 5724 5722 5721 5719 5718 5717 5715 5714 5713 5712 5711 5710 5711 5713 5713 5712 5710 5707 5706 5705 5704 5703 5703
5741 5741 5738 5736 5736 5736 5735 5735 5735 5735 5735 5734 5734 5732 5730 5729 5727 5725 5723 5721 5720 5718 5717 5715 5714 5713 5712 5711 5710 5709 5708 5708 5710 5711 5710 5709 5707 5703 5703 5702 5701 5700 5699
5733 5734 5732 5730 5730 5730 5730 5730 5730 5730 5729 5729 5728 5727 5725 5724 5722 5720 5718 5717 5715 5714 5713 5712 5711 5710 5708 5708 5707 5706 5705 5705 5708 5707 5706 5705 5702 5700 5700 5699 5698 5697 5695
5726 5727 5725 5723 5723 5723 5724 5724 5724 5724 5724 5723 5722 5721 5720 5718 5717 5715 5713 5712 5711 5710 5709 5708 5707 5706 5705 5704 5703 5702 5702 5702 5703 5704 5703 5701 5698 5697 5696 5695 5694 5693 5692
5716 5718 5718 5717 5716 5717 5717 5718 5718 5718 5718 5717 5717 5715 5714 5712 5711 5710 5709 5707 5706 5706 5705 5704 5703 5702 5702 5701 5700 5699 5699 5699 5703 5701 5700 5698 5695 5694 5693 5692 5691 5689 5688
5705 5709 5711 5711 5712 5712 5711 5711 5712 5712 5712 5711 5710 5709 5708 5706 5705 5704 5704 5703 5702 5701 5700 5700 5699 5699 5698 5698 5697 5696 5696 5696 5699 5698 5697 5695 5692 5691 5690 5689 5687 5686 5684
5693 5697 5701 5704 5706 5707 5707 5705 5705 5705 5705 5705 5704 5702 5702 5702 5701 5700 5699 5698 5697 5697 5696 5695 5695 5695 5694 5694 5694 5693 5694 5697 5697 5696 5694 5691 5689 5688 5687 5686 5684 5682 5680
5682 5686 5691 5695 5698 5700 5701 5700 5701 5700 5700 5701 5700 5698 5699 5699 5698 5697 5693 5692 5692 5692 5692 5691 5691 5691 5692 5693 5691 5691 5693 5693 5694 5693 5691 5688 5686 5685 5684 5683 5681 5679 5677
5673 5676 5681 5686 5690 5693 5695 5696 5696 5697 5696 5696 5696 5694 5694 5693 5692 5691 5690 5688 5688 5688 5689 5687 5688 5690 5691 5691 5691 5691 5691 5691 5691 5690 5688 5685 5683 5682 5682 5680 5679 5677 5674
5664 5667 5672 5677 5681 5685 5688 5690 5691 5691 5691 5691 5691 5690 5689 5689 5688 5688 5688 5687 5687 5686 5686 5686 5687 5687 5687 5688 5688 5688 5688 5687 5687 5686 5685 5682 5680 5679 5678 5677 5675 5674 5671
5660 5662 5665 5669 5673 5677 5681 5683 5684 5685 5685 5685 5685 5685 5685 5684 5684 5684 5684 5683 5684 5683 5683 5683 5684 5684 5684 5685 5684 5684 5685 5684 5683 5683 5682 5679 5677 5676 5675 5673 5672 5670 5668
5654 5657 5660 5662 5665 5670 5674 5677 5678 5679 5679 5680 5679 5680 5680 5680 5680 5680 5680 5679 5679 5679 5679 5679 5680 5680 5681 5680 5681 5681 5681 5680 5680 5679 5679 5677 5675 5673 5671 5670 5668 5666 5664
5649 5652 5655 5657 5659 5663 5667 5670 5672 5673 5674 5675 5675 5675 5675 5675 5675 5675 5676 5675 5675 5674 5674 5674 5675 5674 5675 5675 5676 5676 5676 5676 5675 5675 5674 5673 5672 5670 5668 5666 5664 5662 5659
5646 5649 5651 5653 5654 5657 5661 5663 5666 5667 5668 5669 5669 5670 5670 5670 5670 5670 5670 5671 5670 5669 5669 5669 5670 5670 5670 5670 5671 5672 5671 5671 5670 5670 5670 5669 5668 5666 5664 5661 5659 5656 5654
5642 5644 5646 5648 5649 5652 5654 5656 5659 5660 5662 5663 5664 5664 5665 5665 5665 5665 5666 5666 5665 5664 5664 5664 5664 5665 5665 5665 5665 5665 5666 5666 5665 5664 5664 5663 5661 5659 5657 5654 5652 5649 5647
5638 5639 5642 5644 5646 5647 5649 5650 5652 5653 5655 5657 5659 5660 5660 5660 5660 5661 5660 5661 5660 5659 5659 5659 5659 5658 5658 5658 5658 5658 5659 5660 5659 5658 5657 5655 5653 5652 5650 5648 5645 5642 5638
5632 5634 5637 5639 5641 5643 5643 5644 5645 5647 5649 5651 5653 5654 5654 5654 5655 5655 5656 5655 5654 5654 5654 5654 5653 5652 5651 5651 5650 5652 5654 5653 5652 5650 5649 5648 5645 5643 5641 5639 5637 5634 5631
5627 5630 5633 5637 5638 5640 5641 5643 5643 5644 5645 5646 5648 5648 5648 5649 5649 5649 5650 5649 5649 5648 5648 5648 5647 5646 5646 5645 5644 5644 5645 5646 5644 5641 5640 5638 5636 5634 5632 5629 5628 5625 5622
5624 5627 5630 5633 5634 5636 5637 5638 5638 5638 5639 5640 5641 5642 5643 5643 5644 5643 5643 5643 5643 5643 5643 5642 5642 5640 5639 5638 5638 5637 5636 5639 5638 5636 5632 5629 5627 5625 5623 5619 5617 5614 5611
5619 5622 5625 5627 5629 5631 5633 5634 5633 5633 5633 5636 5636 5637 5637 5636 5637 5638 5637 5637 5637 5637 5636 5636 5636 5635 5633 5632 5631 5630 5631 5631 5627 5628 5626 5622 5618 5616 5614 5610 5607 5603 5600
5614 5617 5620 5622 5623 5626 5628 5629 5629 5629 5629 5631 5631 5631 5631 5630 5631 5631 5631 5630 5629 5629 5629 5628 5628 5627 5626 5626 5624 5623 5621 5620 5619 5618 5619 5617 5612 5608 5604 5601 5597 5594 5590
5608 5611 5614 5616 5618 5620 5622 5623 5624 5624 5624 5625 5625 5625 5625 5624 5625 5625 5625 5624 5622 5622 5622 5621 5620 5619 5619 5617 5616 5615 5614 5613 5612 5610 5610 5609 5606 5602 5595 5590 5587 5583 5579